TimeCDT,TemperatureF,Dew PointF,Humidity,Sea Level PressureIn,VisibilityMPH,Wind Direction,Wind SpeedMPH,Gust SpeedMPH,PrecipitationIn,Events,Conditions,WindDirDegrees,DateUTC
12:53 AM,55.9,53.1,90,30.04,10.0,SE,3.5,-,N/A,,Scattered Clouds,140,2013-04-07 05:53:00
1:53 AM,57.0,55.0,93,30.04,10.0,Calm,Calm,-,N/A,,Overcast,0,2013-04-07 06:53:00
2:53 AM,57.0,55.0,93,30.02,10.0,SE,4.6,-,N/A,,Overcast,140,2013-04-07 07:53:00
3:53 AM,55.0,54.0,96,30.00,10.0,SSE,3.5,-,N/A,,Clear,150,2013-04-07 08:53:00
4:53 AM,55.0,54.0,96,30.01,8.0,Calm,Calm,-,N/A,,Mostly Cloudy,0,2013-04-07 09:53:00
5:53 AM,57.0,55.0,93,30.01,10.0,SE,5.8,-,N/A,,Overcast,140,2013-04-07 10:53:00
6:53 AM,57.0,55.0,93,30.03,10.0,SE,8.1,-,N/A,,Overcast,130,2013-04-07 11:53:00
7:53 AM,59.0,57.0,93,30.05,10.0,SE,5.8,-,N/A,,Overcast,130,2013-04-07 12:53:00
8:53 AM,61.0,57.9,90,30.06,10.0,SE,9.2,-,N/A,,Overcast,140,2013-04-07 13:53:00
9:53 AM,64.0,59.0,84,30.06,10.0,SE,6.9,-,N/A,,Overcast,140,2013-04-07 14:53:00
10:53 AM,68.0,57.9,70,30.06,10.0,SE,5.8,-,N/A,,Overcast,140,2013-04-07 15:53:00
11:53 AM,72.0,55.9,57,30.06,10.0,SSW,9.2,-,N/A,,Overcast,200,2013-04-07 16:53:00
12:53 PM,73.9,55.9,53,30.03,10.0,South,8.1,18.4,N/A,,Mostly Cloudy,170,2013-04-07 17:53:00
1:53 PM,75.0,57.9,55,30.00,10.0,South,10.4,16.1,N/A,,Overcast,170,2013-04-07 18:53:00
2:53 PM,75.9,55.9,50,29.97,10.0,South,11.5,16.1,N/A,,Overcast,180,2013-04-07 19:53:00
3:53 PM,75.9,55.9,50,29.94,10.0,SSE,8.1,18.4,N/A,,Mostly Cloudy,160,2013-04-07 20:53:00
4:53 PM,75.0,55.9,51,29.93,10.0,South,11.5,-,N/A,,Scattered Clouds,170,2013-04-07 21:53:00
5:53 PM,73.9,55.9,53,29.91,10.0,South,10.4,-,N/A,,Clear,170,2013-04-07 22:53:00
6:53 PM,73.0,57.0,57,29.92,10.0,South,10.4,16.1,N/A,,Partly Cloudy,170,2013-04-07 23:53:00
7:53 PM,70.0,59.0,68,29.92,10.0,South,9.2,-,N/A,,Partly Cloudy,170,2013-04-08 00:53:00
8:53 PM,69.1,59.0,70,29.93,10.0,South,11.5,19.6,N/A,,Clear,180,2013-04-08 01:53:00
9:53 PM,66.9,59.0,76,29.95,10.0,South,10.4,-,N/A,,Clear,170,2013-04-08 02:53:00
10:53 PM,64.9,60.1,84,29.95,10.0,South,8.1,-,N/A,,Clear,170,2013-04-08 03:53:00
11:53 PM,64.9,60.1,84,29.94,10.0,SSE,6.9,-,N/A,,Overcast,160,2013-04-08 04:53:00